Change the Weather History Date:

Friday, February 21, 2014

  Actual Average (KGHW) Record (KGHW)
Temperature  
Mean Temperature 5 °F -  
Max Temperature 10 °F 31 °F 51 °F (1961)
Min Temperature 0 °F 10 °F -21 °F (1963)
Degree Days  
Heating Degree Days 60    
Moisture  
Dew Point 0 °F    
Average Humidity 77    
Maximum Humidity 83    
Minimum Humidity 72    
Precipitation  
Precipitation 0.00 in - - ()
Sea Level Pressure  
Sea Level Pressure 29.57 in    
Wind  
Wind Speed 22 mph (WNW)    
Max Wind Speed 30 mph    
Max Gust Speed 41 mph    
Visibility 7 miles    
Events Snow    
Averages and records for this station are not official NWS values.
T = Trace of Precipitation, MM = Missing Value Source: NWS Daily Summary

Daily Weather History Graph

Daily Weather History Graph

Search for Another Location

Airport or City:

Trip Planner

Search our weather history database for the weather conditions in past years. The results will help you decide how hot, cold, wet, or windy it might be!

Date:

Astronomy

Feb. 21, 2014 Rise Set
Actual Time 7:12 AM CST 5:55 PM CST
Civil Twilight 6:41 AM CST 6:25 PM CST
Nautical Twilight 6:07 AM CST 7:00 PM CST
Astronomical Twilight 5:33 AM CST 7:34 PM CST
Moon 12:09 AM CST (2/21) 10:16 AM CST (2/21)
Length of Visible Light 11h 43m
Length of Day
10h 43m
Waning Gibbous, 60% of the Moon is Illuminated
Feb 21
Waning Gibbous
Feb 22
Last Quarter
Mar 1
New
Mar 8
First Quarter
Mar 16
Full

Hourly Weather History & Observations

Time (CST) Temp. Windchill Dew Point Humidity Pressure Visibility Wind Dir Wind Speed Gust Speed Precip Events Conditions
12:12 AM 9.5 °F -12.9 °F 5.0 °F 82% 29.44 in 1.5 mi NW 29.9 mph 34.5 mph N/A Snow Light Snow
12:33 AM 8.6 °F -13.4 °F 4.3 °F 83% 29.43 in 1.0 mi NW 27.6 mph 35.7 mph N/A Snow Light Snow
12:52 AM 8.1 °F -12.2 °F 3.7 °F 83% 29.43 in 1.5 mi WNW 21.9 mph 33.4 mph N/A Snow Light Snow
1:12 AM 7.5 °F -14.1 °F 3.0 °F 82% 29.43 in 1.0 mi NW 25.3 mph 33.4 mph N/A Snow Light Snow
1:33 AM 6.6 °F -16.8 °F 1.9 °F 81% 29.43 in 1.0 mi NW 29.9 mph 38.0 mph N/A Snow Light Snow
1:52 AM 5.7 °F -17.7 °F 0.9 °F 80% 29.42 in 0.5 mi NW 28.8 mph 39.1 mph N/A Snow Snow
2:12 AM 5.4 °F -17.0 °F 0.3 °F 80% 29.43 in 0.8 mi WNW 25.3 mph 41.4 mph N/A Snow Light Snow
2:33 AM 4.6 °F -18.4 °F -0.4 °F 80% 29.44 in 1.2 mi WNW 26.5 mph 32.2 mph N/A Snow Light Snow
2:52 AM 4.1 °F -18.3 °F -0.8 °F 80% 29.44 in 1.2 mi NW 24.2 mph 32.2 mph N/A Snow Light Snow
3:12 AM 4.1 °F -17.4 °F -1.3 °F 78% 29.44 in 1.8 mi WNW 21.9 mph 31.1 mph N/A Snow Light Snow
3:33 AM 3.9 °F -18.5 °F -1.3 °F 79% 29.44 in 2.0 mi NW 24.2 mph 29.9 mph N/A Snow Light Snow
3:52 AM 3.7 °F -18.3 °F -1.7 °F 78% 29.45 in 4.0 mi WNW 23.0 mph 27.6 mph N/A   Haze
4:12 AM 3.0 °F -17.8 °F -2.2 °F 79% 29.45 in 2.0 mi WNW 19.6 mph 29.9 mph N/A Snow Light Snow
4:32 AM 2.8 °F -19.5 °F -2.4 °F 79% 29.45 in 2.5 mi WNW 23.0 mph 27.6 mph N/A Snow Light Snow
4:52 AM 2.7 °F -18.8 °F -2.6 °F 79% 29.47 in 3.0 mi WNW 20.7 mph 27.6 mph N/A Snow Light Snow
5:12 AM 2.7 °F -19.3 °F -2.6 °F 79% 29.47 in 2.5 mi WNW 21.9 mph 32.2 mph N/A Snow Light Snow
5:32 AM 2.7 °F -19.8 °F -2.6 °F 79% 29.47 in 4.0 mi WNW 23.0 mph 27.6 mph N/A   Haze
5:53 AM 2.5 °F -18.5 °F -2.7 °F 79% 29.48 in 7.0 mi WNW 19.6 mph 24.2 mph N/A   Clear
6:12 AM 2.1 °F -18.5 °F -3.1 °F 79% 29.48 in 5.0 mi WNW 18.4 mph 25.3 mph N/A   Haze
6:32 AM 1.4 °F -19.9 °F -3.8 °F 79% 29.48 in 4.0 mi WNW 19.6 mph 24.2 mph N/A   Haze
6:53 AM 1.2 °F -20.2 °F -4.0 °F 79% 29.48 in 4.0 mi WNW 19.6 mph 27.6 mph N/A   Haze
7:12 AM 0.9 °F -20.7 °F -4.4 °F 79% 29.49 in 5.0 mi WNW 19.6 mph 29.9 mph N/A   Haze
7:32 AM 0.5 °F -22.2 °F -4.9 °F 78% 29.49 in 7.0 mi WNW 21.9 mph 28.8 mph N/A   Clear
7:53 AM 0.3 °F -21.9 °F -5.1 °F 78% 29.50 in 10.0 mi WNW 20.7 mph 26.5 mph N/A   Clear
8:12 AM 0.1 °F -22.1 °F -5.1 °F 79% 29.50 in 10.0 mi WNW 20.7 mph 26.5 mph N/A   Clear
8:32 AM 0.3 °F -20.8 °F -5.3 °F 77% 29.50 in 10.0 mi WNW 18.4 mph 25.3 mph N/A   Clear
8:53 AM 0.5 °F -19.4 °F -5.3 °F 77% 29.51 in 10.0 mi WNW 16.1 mph 24.2 mph N/A   Clear
9:12 AM 0.9 °F -19.5 °F -5.1 °F 76% 29.52 in 10.0 mi WNW 17.3 mph 26.5 mph N/A   Clear
9:32 AM 1.4 °F -19.4 °F -4.9 °F 75% 29.53 in 10.0 mi WNW 18.4 mph 27.6 mph N/A   Clear
9:53 AM 1.4 °F -18.8 °F -4.7 °F 76% 29.53 in 10.0 mi WNW 17.3 mph 27.6 mph N/A   Clear
10:12 AM 2.3 °F -19.8 °F -4.2 °F 74% 29.54 in 10.0 mi WNW 21.9 mph 28.8 mph N/A   Clear
10:32 AM 2.8 °F -19.1 °F -3.5 °F 75% 29.53 in 1.2 mi WNW 21.9 mph 32.2 mph N/A   Haze
10:53 AM 3.6 °F -18.6 °F -3.1 °F 74% 29.54 in 1.5 mi WNW 23.0 mph 26.5 mph N/A   Haze
11:12 AM 4.1 °F -16.4 °F -2.6 °F 74% 29.54 in 1.8 mi WNW 19.6 mph 29.9 mph N/A   Haze
11:32 AM 5.0 °F -16.7 °F -2.2 °F 72% 29.55 in 10.0 mi WNW 23.0 mph 31.1 mph N/A   Clear
11:53 AM 5.4 °F -13.7 °F -2.0 °F 72% 29.55 in 10.0 mi WNW 17.3 mph 31.1 mph N/A   Clear
12:12 PM 5.7 °F -15.3 °F -1.7 °F 72% 29.55 in 10.0 mi West 21.9 mph 27.6 mph N/A   Clear
12:32 PM 5.5 °F -15.5 °F -1.5 °F 73% 29.56 in 10.0 mi West 21.9 mph 31.1 mph N/A   Clear
12:53 PM 5.9 °F -14.5 °F -1.1 °F 73% 29.57 in 10.0 mi West 20.7 mph 26.5 mph N/A   Clear
1:12 PM 5.9 °F -15.9 °F -1.3 °F 72% 29.57 in 10.0 mi West 24.2 mph 31.1 mph N/A   Clear
1:33 PM 6.6 °F -14.5 °F -0.6 °F 72% 29.58 in 10.0 mi West 23.0 mph 31.1 mph N/A   Clear
1:52 PM 7.3 °F -12.2 °F 0.1 °F 72% 29.58 in 10.0 mi West 19.6 mph 28.8 mph N/A   Clear
2:12 PM 8.1 °F -11.2 °F 1.0 °F 73% 29.58 in 10.0 mi West 19.6 mph 32.2 mph N/A   Clear
2:33 PM 9.1 °F -11.6 °F 2.3 °F 74% 29.59 in 10.0 mi WNW 24.2 mph 31.1 mph N/A   Clear
2:52 PM 9.3 °F -9.6 °F 2.3 °F 73% 29.59 in 10.0 mi WNW 19.6 mph 31.1 mph N/A   Clear
3:12 PM 9.3 °F -10.0 °F 2.5 °F 74% 29.60 in 10.0 mi WNW 20.7 mph 28.8 mph N/A   Clear
3:33 PM 9.9 °F -8.4 °F 3.0 °F 74% 29.61 in 10.0 mi WNW 18.4 mph 26.5 mph N/A   Clear
3:52 PM 10.2 °F -8.9 °F 3.2 °F 73% 29.62 in 10.0 mi WNW 20.7 mph 28.8 mph N/A   Clear
4:12 PM 10.2 °F -8.4 °F 3.7 °F 75% 29.62 in 10.0 mi WNW 19.6 mph 26.5 mph N/A   Clear
4:33 PM 10.4 °F -7.7 °F 4.1 °F 76% 29.63 in 10.0 mi West 18.4 mph 26.5 mph N/A   Clear
4:52 PM 10.4 °F -8.2 °F 4.1 °F 76% 29.64 in 10.0 mi West 19.6 mph 27.6 mph N/A   Clear
5:12 PM 10.2 °F -6.9 °F 4.1 °F 76% 29.65 in 10.0 mi West 16.1 mph 25.3 mph N/A   Clear
5:33 PM 9.7 °F -7.0 °F 3.7 °F 77% 29.65 in 10.0 mi West 15.0 mph 23.0 mph N/A   Clear
5:52 PM 9.5 °F -7.2 °F 3.7 °F 77% 29.66 in 10.0 mi WNW 15.0 mph 24.2 mph N/A   Clear
6:13 PM 9.3 °F -7.4 °F 3.7 °F 78% 29.67 in 10.0 mi West 15.0 mph 23.0 mph N/A   Clear
6:32 PM 9.0 °F -9.0 °F 3.9 °F 80% 29.67 in 10.0 mi West 17.3 mph - N/A   Clear
6:52 PM 8.6 °F -8.9 °F 3.7 °F 81% 29.69 in 10.0 mi West 16.1 mph 25.3 mph N/A   Clear
7:13 PM 8.2 °F -8.2 °F 3.6 °F 81% 29.69 in 10.0 mi West 13.8 mph 19.6 mph N/A   Clear
7:32 PM 7.7 °F -9.5 °F 3.2 °F 82% 29.70 in 10.0 mi West 15.0 mph - N/A   Clear
7:53 PM 7.9 °F -9.9 °F 3.2 °F 81% 29.71 in 10.0 mi West 16.1 mph - N/A   Clear
8:12 PM 7.7 °F -10.1 °F 3.2 °F 82% 29.71 in 10.0 mi West 16.1 mph 24.2 mph N/A   Clear
8:32 PM 7.7 °F -10.1 °F 3.0 °F 81% 29.72 in 10.0 mi West 16.1 mph 21.9 mph N/A   Clear
8:53 PM 7.5 °F -9.7 °F 2.7 °F 81% 29.72 in 10.0 mi West 15.0 mph 21.9 mph N/A   Clear
9:12 PM 7.5 °F -10.3 °F 2.3 °F 79% 29.72 in 10.0 mi West 16.1 mph 21.9 mph N/A   Clear
9:32 PM 7.5 °F -10.3 °F 1.9 °F 78% 29.73 in 10.0 mi WNW 16.1 mph 21.9 mph N/A   Clear
9:53 PM 6.8 °F -10.0 °F 1.4 °F 79% 29.74 in 10.0 mi West 13.8 mph - N/A   Clear
10:12 PM 6.6 °F -10.2 °F 0.7 °F 77% 29.74 in 10.0 mi WNW 13.8 mph - N/A   Clear
10:32 PM 5.9 °F -9.7 °F 0.5 °F 78% 29.74 in 10.0 mi West 11.5 mph - N/A   Clear
10:53 PM 5.5 °F -10.9 °F 0.1 °F 78% 29.74 in 10.0 mi WNW 12.7 mph 19.6 mph N/A   Clear
11:12 PM 5.5 °F -12.3 °F -0.2 °F 77% 29.75 in 10.0 mi WNW 15.0 mph 20.7 mph N/A   Clear
11:32 PM 5.4 °F -11.8 °F -0.4 °F 77% 29.75 in 10.0 mi WNW 13.8 mph - N/A   Clear
11:53 PM 4.8 °F -11.1 °F -0.9 °F 77% 29.76 in 10.0 mi West 11.5 mph 17.3 mph N/A   Clear